QPF
0.00 0.00 0.01 0.01 0.01 0.00 0.00 0.00 0.01 0.01 0.01 0.01 0.01 0.01 0.01 0.00 0.00 0.00 0.00 0.00 0.00 0.00 0.00 0.00 0.00 0.00 0.00 0.00 0.00 0.00 0.00 0.00 0.00 0.00 0.01 0.00 0.01 0.01 0.02 0.03 0.02 0.03 0.03
0.00 0.00 0.01 0.00 0.00 0.00 0.00 0.00 0.00 0.01 0.01 0.01 0.01 0.01 0.01 0.01 0.01 0.01 0.00 0.00 0.00 0.00 0.00 0.00 0.00 0.00 0.00 0.00 0.01 0.00 0.00 0.00 0.00 0.00 0.01 0.01 0.01 0.01 0.02 0.02 0.02 0.05 0.02
0.00 0.01 0.01 0.01 0.00 0.00 0.00 0.00 0.00 0.00 0.01 0.01 0.01 0.01 0.01 0.01 0.01 0.01 0.01 0.01 0.00 0.00 0.00 0.00 0.01 0.01 0.00 0.00 0.00 0.00 0.00 0.00 0.00 0.01 0.01 0.01 0.01 0.01 0.02 0.02 0.01 0.03 0.02
0.00 0.01 0.00 0.00 0.00 0.00 0.00 0.00 0.00 0.00 0.00 0.01 0.01 0.01 0.01 0.01 0.01 0.01 0.01 0.01 0.01 0.00 0.00 0.01 0.02 0.01 0.00 0.00 0.00 0.00 0.00 0.00 0.01 0.01 0.01 0.01 0.01 0.02 0.02 0.03 0.02 0.02 0.03
0.00 0.00 0.00 0.00 0.00 0.00 0.00 0.00 0.00 0.00 0.00 0.00 0.00 0.00 0.01 0.00 0.00 0.01 0.01 0.01 0.01 0.01 0.01 0.01 0.00 0.00 0.00 0.00 0.00 0.00 0.00 0.01 0.01 0.01 0.02 0.02 0.02 0.03 0.03 0.04 0.03 0.03 0.04
0.00 0.00 0.00 0.01 0.00 0.00 0.00 0.01 0.01 0.00 0.00 0.00 0.00 0.00 0.00 0.00 0.00 0.01 0.01 0.01 0.01 0.01 0.01 0.00 0.01 0.00 0.00 0.00 0.00 0.00 0.00 0.01 0.02 0.01 0.02 0.03 0.03 0.04 0.03 0.03 0.04 0.04 0.03
0.00 0.00 0.00 0.01 0.01 0.01 0.01 0.01 0.01 0.00 0.00 0.00 0.00 0.00 0.00 0.00 0.00 0.01 0.01 0.01 0.01 0.01 0.01 0.01 0.01 0.01 0.01 0.01 0.00 0.00 0.01 0.01 0.01 0.01 0.02 0.04 0.05 0.04 0.05 0.07 0.06 0.05 0.04
0.00 0.01 0.01 0.01 0.01 0.01 0.01 0.01 0.00 0.00 0.00 0.00 0.01 0.00 0.00 0.00 0.00 0.01 0.01 0.01 0.01 0.01 0.01 0.01 0.01 0.01 0.01 0.00 0.00 0.00 0.01 0.01 0.01 0.01 0.01 0.03 0.03 0.03 0.06 0.08 0.10 0.08 0.06
0.02 0.01 0.01 0.02 0.03 0.03 0.03 0.02 0.01 0.01 0.01 0.01 0.01 0.01 0.01 0.00 0.00 0.01 0.01 0.01 0.01 0.01 0.01 0.01 0.01 0.01 0.01 0.01 0.01 0.01 0.01 0.02 0.03 0.03 0.02 0.03 0.02 0.03 0.09 0.12 0.11 0.10 0.08
0.02 0.02 0.02 0.03 0.04 0.03 0.04 0.03 0.02 0.01 0.01 0.01 0.01 0.01 0.01 0.01 0.01 0.01 0.01 0.01 0.01 0.01 0.01 0.01 0.01 0.01 0.01 0.02 0.02 0.03 0.02 0.03 0.03 0.03 0.04 0.03 0.02 0.03 0.07 0.09 0.11 0.12 0.09
0.02 0.02 0.02 0.02 0.03 0.03 0.04 0.04 0.03 0.02 0.02 0.02 0.02 0.02 0.02 0.02 0.02 0.02 0.01 0.01 0.02 0.02 0.02 0.02 0.02 0.03 0.02 0.02 0.02 0.03 0.03 0.02 0.02 0.03 0.04 0.03 0.03 0.05 0.07 0.08 0.08 0.11 0.12
0.01 0.02 0.02 0.02 0.02 0.03 0.04 0.06 0.05 0.05 0.04 0.04 0.04 0.04 0.04 0.03 0.03 0.02 0.02 0.02 0.02 0.03 0.03 0.04 0.03 0.03 0.03 0.03 0.03 0.04 0.03 0.03 0.03 0.03 0.02 0.02 0.03 0.06 0.08 0.08 0.08 0.11 0.13
0.02 0.02 0.03 0.02 0.02 0.03 0.04 0.05 0.07 0.08 0.09 0.10 0.10 0.07 0.06 0.05 0.04 0.04 0.03 0.03 0.03 0.04 0.05 0.06 0.05 0.04 0.04 0.05 0.06 0.05 0.04 0.04 0.03 0.03 0.03 0.03 0.05 0.08 0.10 0.10 0.12 0.13 0.14
0.02 0.03 0.04 0.04 0.03 0.04 0.05 0.06 0.07 0.08 0.11 0.15 0.14 0.11 0.11 0.09 0.08 0.06 0.05 0.03 0.04 0.05 0.08 0.09 0.08 0.07 0.06 0.06 0.05 0.04 0.03 0.03 0.02 0.03 0.03 0.03 0.05 0.07 0.11 0.14 0.13 0.13 0.12
0.04 0.05 0.07 0.05 0.05 0.04 0.05 0.05 0.05 0.06 0.07 0.08 0.12 0.11 0.09 0.09 0.08 0.09 0.07 0.05 0.05 0.06 0.08 0.09 0.09 0.08 0.08 0.08 0.05 0.04 0.05 0.04 0.03 0.03 0.03 0.03 0.03 0.05 0.09 0.11 0.13 0.14 0.14
0.04 0.05 0.05 0.07 0.06 0.05 0.05 0.05 0.06 0.07 0.08 0.06 0.05 0.05 0.06 0.07 0.07 0.07 0.06 0.05 0.05 0.05 0.07 0.09 0.09 0.08 0.08 0.08 0.05 0.05 0.05 0.04 0.04 0.04 0.04 0.04 0.03 0.04 0.06 0.09 0.11 0.13 0.13
0.04 0.04 0.04 0.06 0.05 0.04 0.04 0.05 0.07 0.07 0.07 0.07 0.06 0.06 0.07 0.07 0.06 0.06 0.06 0.06 0.06 0.07 0.08 0.09 0.10 0.09 0.08 0.07 0.07 0.07 0.05 0.04 0.05 0.05 0.05 0.04 0.05 0.04 0.04 0.05 0.06 0.08 0.09
0.03 0.03 0.04 0.04 0.04 0.03 0.03 0.04 0.06 0.06 0.06 0.07 0.08 0.08 0.08 0.09 0.09 0.08 0.06 0.07 0.08 0.08 0.08 0.09 0.09 0.09 0.09 0.09 0.08 0.07 0.05 0.05 0.04 0.04 0.04 0.04 0.06 0.04 0.03 0.03 0.03 0.04 0.05
0.05 0.06 0.06 0.05 0.05 0.05 0.05 0.05 0.05 0.07 0.07 0.08 0.10 0.09 0.09 0.09 0.07 0.07 0.07 0.08 0.08 0.09 0.10 0.09 0.09 0.11 0.11 0.11 0.09 0.07 0.06 0.05 0.04 0.03 0.03 0.03 0.05 0.04 0.04 0.03 0.03 0.03 0.04
0.08 0.08 0.06 0.05 0.04 0.05 0.05 0.05 0.06 0.07 0.07 0.07 0.09 0.08 0.07 0.09 0.08 0.07 0.08 0.10 0.09 0.10 0.12 0.12 0.11 0.09 0.08 0.08 0.08 0.06 0.05 0.04 0.03 0.03 0.02 0.02 0.04 0.04 0.05 0.04 0.05 0.03 0.03
0.07 0.06 0.05 0.04 0.05 0.05 0.07 0.07 0.09 0.12 0.11 0.09 0.08 0.08 0.09 0.10 0.08 0.08 0.08 0.09 0.10 0.10 0.11 0.11 0.09 0.09 0.08 0.07 0.07 0.05 0.04 0.04 0.03 0.02 0.02 0.02 0.02 0.02 0.04 0.05 0.05 0.05 0.03
0.08 0.08 0.07 0.05 0.05 0.06 0.07 0.07 0.09 0.10 0.11 0.10 0.10 0.09 0.10 0.11 0.11 0.11 0.09 0.08 0.09 0.10 0.10 0.08 0.08 0.08 0.08 0.08 0.08 0.08 0.06 0.04 0.03 0.02 0.02 0.01 0.02 0.02 0.02 0.03 0.04 0.04 0.03
0.05 0.06 0.07 0.06 0.07 0.09 0.12 0.12 0.10 0.09 0.07 0.07 0.10 0.13 0.15 0.15 0.12 0.12 0.13 0.11 0.12 0.11 0.09 0.07 0.07 0.08 0.09 0.10 0.11 0.12 0.10 0.07 0.05 0.04 0.02 0.02 0.02 0.02 0.01 0.02 0.02 0.03 0.03
0.02 0.03 0.06 0.06 0.06 0.07 0.09 0.11 0.10 0.08 0.07 0.08 0.10 0.10 0.14 0.18 0.18 0.17 0.18 0.17 0.14 0.11 0.09 0.07 0.07 0.07 0.08 0.09 0.10 0.10 0.09 0.08 0.07 0.05 0.03 0.02 0.02 0.01 0.01 0.02 0.02 0.04 0.03
0.01 0.01 0.03 0.03 0.04 0.04 0.06 0.08 0.08 0.06 0.07 0.08 0.11 0.12 0.11 0.12 0.15 0.17 0.19 0.19 0.15 0.11 0.08 0.07 0.08 0.07 0.07 0.08 0.09 0.09 0.09 0.08 0.07 0.06 0.04 0.02 0.01 0.01 0.01 0.02 0.03 0.03 0.03
0.01 0.01 0.02 0.03 0.03 0.04 0.03 0.03 0.04 0.05 0.06 0.08 0.10 0.13 0.15 0.14 0.15 0.17 0.17 0.17 0.16 0.13 0.10 0.07 0.07 0.07 0.07 0.08 0.09 0.09 0.09 0.08 0.08 0.08 0.06 0.04 0.02 0.01 0.01 0.02 0.02 0.03 0.03
MSLP
1006.93 1007.06 1007.43 1007.98 1008.58 1009.15 1009.59 1009.88 1010.04 1010.12 1010.20 1010.35 1010.61 1011.01 1011.51 1012.06 1012.61 1013.08 1013.45 1013.71 1013.86 1013.96 1014.03 1014.11 1014.21 1014.34 1014.48 1014.62 1014.73 1014.80 1014.85 1014.88 1014.91 1014.97 1015.08 1015.23 1015.43 1015.66 1015.91 1016.14 1016.35 1016.53 1016.67
1006.51 1006.70 1007.13 1007.74 1008.41 1009.02 1009.51 1009.83 1010.00 1010.09 1010.16 1010.30 1010.56 1010.97 1011.48 1012.05 1012.61 1013.10 1013.47 1013.71 1013.84 1013.91 1013.96 1014.03 1014.15 1014.31 1014.49 1014.68 1014.83 1014.93 1014.99 1015.01 1015.02 1015.05 1015.14 1015.29 1015.49 1015.75 1016.02 1016.29 1016.53 1016.73 1016.89
1005.98 1006.27 1006.80 1007.50 1008.24 1008.93 1009.47 1009.84 1010.04 1010.14 1010.21 1010.35 1010.60 1010.99 1011.49 1012.05 1012.59 1013.05 1013.39 1013.61 1013.72 1013.77 1013.82 1013.91 1014.06 1014.26 1014.50 1014.73 1014.91 1015.03 1015.08 1015.08 1015.06 1015.06 1015.12 1015.25 1015.46 1015.73 1016.03 1016.34 1016.62 1016.85 1017.03
1005.48 1005.88 1006.53 1007.32 1008.16 1008.92 1009.52 1009.94 1010.18 1010.30 1010.39 1010.52 1010.75 1011.11 1011.58 1012.09 1012.58 1013.00 1013.29 1013.48 1013.57 1013.62 1013.69 1013.81 1014.00 1014.25 1014.53 1014.79 1015.00 1015.12 1015.15 1015.12 1015.06 1015.02 1015.04 1015.15 1015.36 1015.64 1015.96 1016.29 1016.61 1016.87 1017.09
1005.10 1005.63 1006.38 1007.27 1008.18 1009.01 1009.67 1010.13 1010.41 1010.56 1010.66 1010.79 1011.01 1011.33 1011.75 1012.20 1012.63 1012.99 1013.24 1013.39 1013.47 1013.54 1013.63 1013.79 1014.02 1014.31 1014.62 1014.90 1015.10 1015.20 1015.19 1015.12 1015.02 1014.95 1014.94 1015.03 1015.23 1015.51 1015.85 1016.20 1016.53 1016.83 1017.07
1004.91 1005.55 1006.38 1007.34 1008.30 1009.16 1009.86 1010.36 1010.67 1010.85 1010.97 1011.11 1011.32 1011.62 1011.98 1012.38 1012.74 1013.04 1013.25 1013.38 1013.46 1013.54 1013.67 1013.86 1014.13 1014.44 1014.76 1015.02 1015.19 1015.25 1015.21 1015.10 1014.96 1014.86 1014.84 1014.92 1015.11 1015.39 1015.73 1016.08 1016.43 1016.73 1016.99
1004.92 1005.62 1006.50 1007.47 1008.44 1009.31 1010.02 1010.53 1010.87 1011.09 1011.25 1011.41 1011.63 1011.91 1012.24 1012.58 1012.89 1013.14 1013.31 1013.42 1013.51 1013.62 1013.77 1014.00 1014.28 1014.59 1014.89 1015.12 1015.25 1015.26 1015.17 1015.03 1014.87 1014.76 1014.74 1014.83 1015.02 1015.30 1015.63 1015.97 1016.30 1016.59 1016.85
1005.05 1005.77 1006.64 1007.58 1008.51 1009.35 1010.04 1010.56 1010.93 1011.19 1011.39 1011.60 1011.84 1012.11 1012.42 1012.72 1012.99 1013.20 1013.35 1013.46 1013.56 1013.69 1013.87 1014.11 1014.40 1014.70 1014.95 1015.13 1015.20 1015.16 1015.04 1014.88 1014.72 1014.63 1014.64 1014.75 1014.96 1015.24 1015.55 1015.86 1016.16 1016.42 1016.66
1005.22 1005.90 1006.71 1007.57 1008.43 1009.20 1009.85 1010.36 1010.75 1011.06 1011.32 1011.58 1011.85 1012.15 1012.45 1012.73 1012.96 1013.15 1013.29 1013.40 1013.52 1013.67 1013.87 1014.12 1014.40 1014.67 1014.88 1014.99 1015.01 1014.93 1014.78 1014.62 1014.50 1014.45 1014.51 1014.66 1014.90 1015.18 1015.47 1015.75 1016.00 1016.22 1016.42
1005.32 1005.93 1006.64 1007.40 1008.14 1008.83 1009.42 1009.92 1010.32 1010.67 1011.00 1011.31 1011.63 1011.95 1012.25 1012.52 1012.74 1012.91 1013.04 1013.16 1013.30 1013.48 1013.70 1013.96 1014.23 1014.46 1014.63 1014.69 1014.66 1014.55 1014.40 1014.26 1014.18 1014.20 1014.32 1014.53 1014.79 1015.08 1015.36 1015.60 1015.81 1015.98 1016.14
1005.30 1005.83 1006.43 1007.06 1007.69 1008.28 1008.80 1009.27 1009.69 1010.08 1010.45 1010.82 1011.18 1011.53 1011.83 1012.10 1012.30 1012.46 1012.59 1012.73 1012.89 1013.09 1013.34 1013.61 1013.87 1014.08 1014.21 1014.24 1014.17 1014.05 1013.91 1013.81 1013.78 1013.87 1014.05 1014.32 1014.62 1014.92 1015.19 1015.40 1015.57 1015.70 1015.83
1005.17 1005.62 1006.11 1006.63 1007.14 1007.63 1008.09 1008.53 1008.94 1009.35 1009.76 1010.17 1010.56 1010.92 1011.24 1011.49 1011.69 1011.85 1011.98 1012.13 1012.32 1012.55 1012.82 1013.11 1013.37 1013.57 1013.68 1013.69 1013.62 1013.50 1013.38 1013.32 1013.34 1013.48 1013.72 1014.03 1014.36 1014.67 1014.93 1015.13 1015.26 1015.37 1015.48
1004.94 1005.34 1005.76 1006.18 1006.60 1007.01 1007.40 1007.79 1008.19 1008.61 1009.03 1009.46 1009.86 1010.23 1010.55 1010.80 1010.99 1011.14 1011.29 1011.45 1011.66 1011.92 1012.21 1012.52 1012.80 1013.01 1013.13 1013.15 1013.08 1012.98 1012.88 1012.84 1012.90 1013.08 1013.34 1013.67 1014.01 1014.33 1014.58 1014.76 1014.89 1014.98 1015.10
1004.65 1005.03 1005.42 1005.79 1006.15 1006.49 1006.83 1007.18 1007.55 1007.95 1008.36 1008.79 1009.19 1009.56 1009.87 1010.11 1010.30 1010.46 1010.61 1010.79 1011.01 1011.29 1011.62 1011.95 1012.25 1012.49 1012.63 1012.67 1012.63 1012.55 1012.48 1012.46 1012.52 1012.69 1012.95 1013.27 1013.59 1013.89 1014.13 1014.31 1014.43 1014.54 1014.67
1004.31 1004.72 1005.11 1005.47 1005.80 1006.11 1006.41 1006.73 1007.06 1007.43 1007.82 1008.22 1008.61 1008.97 1009.28 1009.52 1009.71 1009.87 1010.03 1010.22 1010.46 1010.76 1011.10 1011.45 1011.79 1012.06 1012.24 1012.32 1012.32 1012.27 1012.21 1012.18 1012.23 1012.37 1012.58 1012.85 1013.13 1013.39 1013.61 1013.78 1013.91 1014.03 1014.18
1003.90 1004.36 1004.80 1005.19 1005.54 1005.84 1006.13 1006.42 1006.72 1007.05 1007.41 1007.79 1008.16 1008.51 1008.81 1009.07 1009.27 1009.44 1009.61 1009.80 1010.05 1010.35 1010.69 1011.06 1011.42 1011.73 1011.96 1012.09 1012.14 1012.12 1012.07 1012.03 1012.04 1012.11 1012.25 1012.43 1012.64 1012.85 1013.03 1013.18 1013.31 1013.45 1013.62
1003.38 1003.92 1004.42 1004.88 1005.27 1005.60 1005.90 1006.17 1006.46 1006.76 1007.09 1007.44 1007.80 1008.14 1008.46 1008.72 1008.94 1009.13 1009.31 1009.51 1009.74 1010.03 1010.37 1010.75 1011.13 1011.47 1011.75 1011.94 1012.04 1012.05 1012.02 1011.96 1011.92 1011.91 1011.95 1012.04 1012.15 1012.28 1012.41 1012.54 1012.66 1012.80 1012.98
1002.73 1003.34 1003.92 1004.45 1004.91 1005.29 1005.62 1005.91 1006.19 1006.47 1006.78 1007.11 1007.46 1007.81 1008.14 1008.43 1008.68 1008.89 1009.08 1009.27 1009.49 1009.76 1010.08 1010.45 1010.83 1011.21 1011.53 1011.78 1011.94 1012.00 1011.98 1011.91 1011.82 1011.74 1011.68 1011.66 1011.68 1011.72 1011.79 1011.88 1011.98 1012.11 1012.28
1001.97 1002.63 1003.28 1003.89 1004.42 1004.87 1005.24 1005.56 1005.84 1006.12 1006.41 1006.73 1007.08 1007.44 1007.79 1008.11 1008.39 1008.63 1008.83 1009.02 1009.22 1009.46 1009.75 1010.10 1010.48 1010.88 1011.25 1011.56 1011.77 1011.89 1011.90 1011.83 1011.71 1011.56 1011.42 1011.30 1011.23 1011.20 1011.20 1011.24 1011.31 1011.41 1011.54
1001.19 1001.87 1002.56 1003.22 1003.82 1004.33 1004.76 1005.10 1005.40 1005.68 1005.96 1006.27 1006.62 1006.98 1007.36 1007.71 1008.03 1008.29 1008.51 1008.69 1008.87 1009.08 1009.34 1009.66 1010.04 1010.45 1010.86 1011.22 1011.50 1011.68 1011.73 1011.68 1011.54 1011.35 1011.15 1010.96 1010.81 1010.71 1010.66 1010.66 1010.68 1010.74 1010.82
1000.53 1001.17 1001.85 1002.54 1003.18 1003.74 1004.21 1004.59 1004.90 1005.18 1005.45 1005.74 1006.07 1006.44 1006.83 1007.20 1007.55 1007.84 1008.07 1008.26 1008.43 1008.62 1008.85 1009.15 1009.51 1009.94 1010.37 1010.79 1011.13 1011.36 1011.47 1011.45 1011.32 1011.11 1010.88 1010.65 1010.45 1010.31 1010.21 1010.16 1010.15 1010.15 1010.17
1000.11 1000.67 1001.30 1001.97 1002.61 1003.20 1003.69 1004.09 1004.40 1004.67 1004.92 1005.18 1005.49 1005.84 1006.22 1006.61 1006.97 1007.28 1007.54 1007.74 1007.91 1008.08 1008.30 1008.58 1008.95 1009.37 1009.84 1010.29 1010.68 1010.97 1011.13 1011.15 1011.05 1010.86 1010.62 1010.38 1010.16 1010.00 1009.88 1009.80 1009.74 1009.69 1009.64
1000.06 1000.48 1001.01 1001.61 1002.21 1002.78 1003.27 1003.66 1003.97 1004.22 1004.43 1004.66 1004.93 1005.24 1005.60 1005.98 1006.35 1006.68 1006.96 1007.18 1007.36 1007.55 1007.76 1008.04 1008.40 1008.83 1009.31 1009.80 1010.23 1010.56 1010.77 1010.83 1010.77 1010.61 1010.39 1010.16 1009.96 1009.79 1009.67 1009.57 1009.49 1009.39 1009.27
1000.37 1000.61 1000.99 1001.47 1002.00 1002.52 1002.98 1003.36 1003.64 1003.86 1004.04 1004.22 1004.43 1004.70 1005.02 1005.38 1005.74 1006.09 1006.39 1006.64 1006.85 1007.06 1007.29 1007.58 1007.94 1008.38 1008.86 1009.36 1009.82 1010.18 1010.43 1010.53 1010.51 1010.39 1010.21 1010.01 1009.83 1009.69 1009.58 1009.49 1009.39 1009.26 1009.08
1000.95 1000.98 1001.17 1001.50 1001.91 1002.36 1002.77 1003.12 1003.39 1003.58 1003.73 1003.86 1004.02 1004.24 1004.52 1004.84 1005.19 1005.54 1005.87 1006.15 1006.40 1006.65 1006.91 1007.21 1007.59 1008.03 1008.51 1009.01 1009.48 1009.86 1010.13 1010.27 1010.29 1010.21 1010.07 1009.92 1009.78 1009.67 1009.59 1009.51 1009.41 1009.26 1009.05
1001.61 1001.40 1001.38 1001.54 1001.83 1002.19 1002.56 1002.89 1003.15 1003.33 1003.46 1003.57 1003.69 1003.86 1004.09 1004.38 1004.71 1005.06 1005.41 1005.72 1006.02 1006.30 1006.60 1006.93 1007.32 1007.76 1008.25 1008.74 1009.20 1009.59 1009.88 1010.05 1010.10 1010.07 1009.98 1009.87 1009.78 1009.71 1009.65 1009.60 1009.52 1009.37 1009.14
Thickness
5823 5817 5803 5799 5795 5792 5790 5788 5785 5782 5779 5775 5772 5769 5766 5763 5760 5757 5755 5753 5752 5750 5749 5748 5747 5746 5745 5745 5744 5743 5742 5741 5740 5739 5737 5736 5735 5734 5733 5733 5732 5733 5730
5826 5816 5802 5797 5793 5790 5787 5785 5782 5779 5776 5773 5769 5766 5763 5760 5758 5755 5753 5751 5749 5748 5747 5746 5745 5743 5743 5742 5741 5740 5739 5738 5737 5736 5735 5735 5733 5732 5731 5731 5731 5732 5728
5823 5813 5801 5795 5791 5788 5785 5782 5779 5776 5773 5770 5766 5763 5760 5758 5755 5753 5751 5749 5747 5746 5745 5744 5742 5741 5740 5739 5738 5737 5736 5736 5735 5734 5734 5737 5735 5731 5729 5728 5727 5727 5725
5821 5811 5802 5793 5788 5785 5781 5779 5776 5773 5770 5767 5763 5760 5757 5755 5752 5750 5748 5746 5745 5743 5742 5741 5739 5738 5737 5736 5735 5734 5733 5733 5732 5732 5736 5739 5737 5731 5727 5726 5724 5724 5723
5817 5810 5799 5790 5785 5781 5778 5775 5772 5769 5766 5763 5760 5757 5754 5752 5750 5747 5745 5744 5742 5741 5739 5738 5737 5735 5734 5733 5732 5731 5730 5730 5730 5731 5737 5737 5734 5728 5725 5724 5722 5722 5721
5814 5808 5796 5787 5781 5777 5774 5771 5768 5765 5763 5760 5757 5754 5751 5749 5746 5744 5742 5741 5740 5738 5737 5735 5734 5732 5731 5730 5729 5729 5728 5727 5728 5734 5735 5733 5732 5726 5723 5722 5720 5719 5718
5811 5805 5793 5783 5778 5774 5770 5767 5764 5761 5758 5756 5752 5750 5748 5745 5743 5741 5739 5738 5736 5735 5734 5732 5731 5730 5728 5727 5727 5726 5725 5726 5728 5734 5733 5731 5730 5724 5721 5720 5719 5717 5716
5807 5801 5789 5779 5774 5770 5766 5763 5760 5757 5754 5751 5749 5746 5744 5741 5739 5737 5736 5734 5733 5732 5731 5729 5728 5727 5726 5725 5724 5723 5722 5722 5728 5732 5731 5730 5727 5722 5720 5719 5717 5716 5714
5803 5797 5787 5779 5772 5766 5762 5759 5756 5753 5750 5747 5744 5742 5740 5738 5735 5734 5732 5731 5729 5728 5727 5726 5725 5724 5723 5722 5721 5720 5720 5720 5724 5729 5729 5728 5724 5720 5718 5717 5716 5714 5713
5797 5792 5785 5779 5774 5767 5762 5756 5752 5749 5746 5743 5740 5737 5735 5734 5732 5730 5729 5727 5726 5725 5723 5722 5722 5721 5719 5719 5718 5718 5718 5718 5723 5727 5727 5726 5721 5717 5715 5714 5713 5712 5711
5790 5787 5782 5778 5772 5768 5763 5756 5750 5746 5742 5739 5736 5734 5732 5732 5732 5729 5728 5725 5723 5721 5720 5719 5718 5717 5716 5716 5716 5715 5716 5720 5725 5725 5724 5721 5717 5714 5713 5712 5711 5710 5709
5784 5782 5780 5776 5770 5765 5761 5755 5750 5746 5741 5738 5736 5733 5730 5730 5729 5729 5725 5722 5720 5718 5717 5716 5715 5714 5714 5717 5717 5714 5717 5720 5722 5722 5721 5717 5714 5712 5711 5710 5709 5708 5707
5784 5779 5777 5772 5767 5763 5758 5753 5749 5745 5740 5736 5734 5731 5728 5727 5725 5724 5723 5720 5718 5717 5717 5715 5714 5715 5716 5716 5717 5716 5717 5719 5720 5719 5718 5714 5711 5709 5708 5707 5707 5706 5705
5781 5776 5773 5768 5763 5759 5755 5750 5746 5742 5738 5735 5731 5728 5725 5723 5722 5721 5719 5719 5718 5717 5715 5714 5713 5714 5713 5713 5713 5713 5714 5714 5715 5715 5714 5710 5708 5707 5705 5705 5704 5703 5703
5777 5772 5768 5764 5759 5753 5749 5746 5743 5739 5736 5731 5727 5724 5722 5720 5719 5717 5716 5714 5715 5714 5713 5711 5711 5710 5708 5708 5708 5709 5709 5709 5709 5710 5710 5707 5705 5704 5703 5702 5702 5701 5701
5771 5766 5764 5758 5754 5748 5744 5740 5738 5736 5730 5727 5724 5721 5718 5716 5715 5713 5711 5710 5710 5708 5708 5706 5707 5705 5704 5704 5704 5704 5704 5704 5704 5704 5705 5705 5703 5702 5701 5700 5699 5699 5698
5766 5762 5758 5753 5749 5744 5739 5736 5734 5731 5727 5724 5720 5716 5713 5712 5710 5708 5707 5706 5705 5705 5703 5701 5701 5701 5700 5700 5699 5699 5699 5700 5700 5699 5700 5701 5702 5700 5699 5698 5697 5696 5696
5761 5756 5752 5750 5744 5739 5734 5730 5729 5726 5722 5719 5715 5712 5709 5706 5704 5703 5703 5702 5700 5699 5698 5697 5696 5696 5695 5694 5694 5695 5695 5696 5696 5696 5696 5697 5697 5697 5697 5695 5694 5694 5693
5756 5751 5747 5743 5739 5734 5729 5725 5722 5720 5716 5713 5710 5707 5704 5701 5699 5697 5697 5696 5694 5694 5693 5693 5692 5690 5689 5689 5690 5690 5691 5691 5692 5693 5693 5693 5693 5692 5692 5692 5691 5691 5691
5751 5746 5742 5738 5733 5729 5725 5720 5716 5714 5711 5708 5706 5702 5699 5696 5693 5692 5691 5689 5689 5688 5687 5686 5684 5684 5684 5684 5686 5687 5687 5687 5687 5687 5688 5689 5688 5688 5688 5689 5689 5689 5688
5744 5741 5737 5732 5727 5723 5719 5715 5712 5708 5705 5703 5701 5698 5694 5690 5688 5686 5686 5684 5683 5682 5680 5680 5678 5678 5678 5678 5677 5678 5681 5682 5682 5682 5682 5683 5685 5685 5684 5684 5684 5685 5686
5737 5734 5730 5726 5722 5718 5715 5711 5707 5703 5700 5698 5695 5692 5688 5685 5682 5682 5680 5679 5677 5675 5674 5673 5671 5671 5672 5672 5670 5669 5670 5673 5675 5678 5677 5677 5677 5679 5680 5680 5679 5679 5680
5731 5728 5725 5720 5716 5713 5709 5705 5701 5696 5693 5691 5689 5687 5684 5681 5678 5676 5674 5672 5670 5669 5669 5667 5666 5664 5663 5665 5665 5662 5662 5664 5668 5671 5671 5671 5671 5672 5673 5674 5675 5675 5676
5724 5723 5719 5715 5711 5707 5703 5700 5695 5690 5687 5684 5682 5681 5678 5675 5673 5670 5668 5666 5665 5664 5662 5661 5660 5659 5657 5656 5657 5657 5656 5658 5655 5658 5663 5666 5666 5665 5667 5669 5670 5671 5671
5718 5716 5712 5708 5705 5702 5698 5694 5689 5685 5682 5680 5677 5674 5672 5670 5667 5665 5663 5661 5659 5658 5655 5653 5652 5651 5651 5650 5650 5650 5650 5650 5650 5648 5650 5655 5658 5661 5662 5662 5664 5665 5665
5711 5709 5706 5702 5698 5695 5692 5689 5684 5679 5675 5672 5670 5668 5666 5665 5662 5659 5658 5655 5653 5651 5648 5647 5645 5645 5644 5643 5643 5644 5643 5644 5645 5645 5646 5647 5650 5653 5655 5656 5657 5659 5660